Regional Weather Roundup
Issued by NWS

Home | Current Version | Previous Version | Graphics & Text | Print | Product List | Glossary Off
Versions: 1 2 3 4 5 6 7 8 9 10 11 12 13 14 15 16 17 18 19 20 21 22 23 24 25 26 27 28 29 30 31 32 33 34 35 36 37 38 39 40 41 42 43 44 45 46 47 48 49 50

893
ASUS43 KMKX 201921
RWRWI

WISCONSIN REGIONAL WEATHER ROUNDUP
NATIONAL WEATHER SERVICE MILWAUKEE/SULLIVAN WI
200 PM CDT SUN AUG 20 2017

NOTE: "FAIR" INDICATES FEW OR NO CLOUDS BELOW 12,000 FEET WITH NO
SIGNIFICANT WEATHER AND/OR OBSTRUCTIONS TO VISIBILITY.

WIZ001-002-006>008-014>016-023>028-202000-
NORTHWEST WISCONSIN

CITY           SKY/WX    TMP DP  RH WIND       PRES   REMARKS
SUPERIOR ARPT    N/A     79  65  62 NW8       29.89F HX  81
ASHLAND        CLOUDY    78  67  68 W16G24    29.89R HX  80
HAYWARD        CLOUDY    78  66  66 SW9       29.93S HX  80
SIREN          MOSUNNY   79  65  60 W8        29.93S HX  81
CUMBERLAND     CLOUDY    77  64  65 SW8       29.95R
RICE LAKE      CLOUDY    77  68  72 W10       29.95S
CHETEK         CLOUDY    78  69  73 W3        29.94S HX  81
LADYSMITH      MOSUNNY   78  67  68 SW12      29.96R HX  80
EAU CLAIRE     SUNNY     82  65  56 W16       29.93S HX  84
MENOMONIE      SUNNY     83  67  59 S9        29.93S HX  85
NEW RICHMOND   CLOUDY    80  66  62 W7        29.94S HX  82
OSCEOLA        PTSUNNY   81  68  65 W7        29.96S HX  84
$$

WIZ003>005-009-010-017-018-202000-
NORTH CENTRAL WISCONSIN

CITY           SKY/WX    TMP DP  RH WIND       PRES   REMARKS
MANITOWISH WTR MOSUNNY   80  67  63 SW15G22   29.92S HX  82
ARBOR VITAE    MOSUNNY   80  66  63 SW10      29.93S HX  82
WOODRUFF       MOSUNNY   80  66  63 SW10      29.93S HX  82
RHINELANDER    MOSUNNY   80  66  62 SW15G23   29.95F HX  82
EAGLE RIVER    SUNNY     79  63  58 SW9G22    29.93F HX  80
LAND O LAKES   MOSUNNY   80  63  56 S10G16    29.94S HX  81
PHILLIPS       CLOUDY    78  67  69 SW10      29.93S HX  80
TOMAHAWK         N/A     80  65  61 SW7       29.95S HX  81
MEDFORD        SUNNY     77  65  65 SW10      29.96S
MERRILL        SUNNY     81  68  65 SW12G17   29.96F HX  83
$$

WIZ029-030-035-036-043>047-202000-
CENTRAL WISCONSIN

CITY           SKY/WX    TMP DP  RH WIND       PRES   REMARKS
WAUSAU         CLOUDY    80  64  58 SW16G22   29.95F HX  82
MOSINEE        PTSUNNY   79  66  65 SW10G17   29.99S HX  81
MARSHFIELD     CLOUDY    82  63  52 SW12G20   29.97S HX  83
STEVENS POINT  PTSUNNY   77  63  63 SW9       29.99R
WAUPACA        CLOUDY    80  67  63 S8        29.98S HX  82
WAUTOMA        CLOUDY    79  68  69 SW9       29.99S HX  81
WISC RAPIDS    PTSUNNY   79  67  66 SW9       29.99S HX  81
CAMP DOUGLAS   PTSUNNY   77  66  69 W6        29.98F
$$

WIZ011>013-019>022-031-037>040-048>050-202000-
NORTHEAST WISCONSIN

CITY           SKY/WX    TMP DP  RH WIND       PRES   REMARKS
ANTIGO         CLOUDY    78  66  66 SW17      29.98F HX  80
SHAWANO        PTSUNNY   81  65  59 SW5       29.97S HX  82
OCONTO         MOSUNNY   78  65  64 S6        29.96F HX  80
STURGEON BAY   CLOUDY    77  65  66 S10       29.98F
GREEN BAY      CLOUDY    77  67  71 S13       29.98F
MANITOWOC      MOSUNNY   78  66  66 S8        30.00F HX  80
APPLETON       PTSUNNY   77  63  61 SW9       29.98F
CLINTONVILLE   CLOUDY    79  63  57 SW13      29.98R HX  80
OSHKOSH        CLOUDY    78  67  68 S8G20     29.99S HX  80
$$

WIZ032>034-041-042-053>061-202000-
SOUTHWEST WISCONSIN

CITY           SKY/WX    TMP DP  RH WIND       PRES   REMARKS
LA CROSSE      SUNNY     86  65  49 SW9       29.96S HX  88
SPARTA         CLOUDY    80  65  59 W8        29.98S HX  81
VIROQUA        SUNNY     76  67  74 CALM      30.00F
BOSCOBEL       CLOUDY    79  64  60 CALM      29.97F HX  81
PRAIRIE DU CHI CLOUDY    76  63  62 E5        29.95F
PLATTEVILLE    CLOUDY    75  68  77 E5        30.01S
$$

WIZ056-057-062-063-064-067-068-202000-
SOUTH CENTRAL WISCONSIN

CITY           SKY/WX    TMP DP  RH WIND       PRES   REMARKS
REEDSBURG      CLOUDY    78  65  64 SW6       29.99F HX  80
BARABOO/DELLS  CLOUDY    78  63  59 W6        30.00F HX  80
LONE ROCK      CLOUDY    78  67  68 SW5       29.99F HX  80
MINERAL POINT  CLOUDY    77  66  69 CALM      30.02S
MADISON        CLOUDY    78  66  66 VRB3      30.00F HX  80
MIDDLETON      CLOUDY    79  65  61 W5        30.01F HX  81
WATERTOWN      CLOUDY    78  70  76 SW8       30.01F HX  80
MONROE         CLOUDY    77  61  57 CALM      30.03F
JANESVILLE     CLOUDY    81  66  61 W6        30.02S HX  83
$$

WIZ051-052-058>065-066-070>072-202000-
SOUTHEAST WISCONSIN

CITY           SKY/WX    TMP DP  RH WIND       PRES   REMARKS
MILWAUKEE      CLOUDY    83  65  54 S7        30.01F HX  85
WAUKESHA       SUNNY     79  64  61 S9        30.03S HX  81
MILWAUKEE/TIMM SUNNY     81  61  50 SW6       30.03S HX  81
RACINE         MOSUNNY   80  67  64 SE10      30.03F HX  82
KENOSHA        MOSUNNY   84  66  54 SW7       30.02F HX  86
FOND DU LAC    CLOUDY    79  65  62 S12       30.00S HX  81
SHEBOYGAN      PTSUNNY   81  67  62 S12       30.00F HX  83
WEST BEND      CLOUDY    79  66  65 SW7       30.02R HX  81
JUNEAU         CLOUDY    77  67  71 S10       30.03S
$$

LSZ147-162-202000-
LAKE SUPERIOR

STATION/POSITION TIME  TEMP    WIND        PRES    WAVE
                       AIR SEA DIR/SP/G            HT/PER
                 (UTC) (F)     (DEG/KT/KT) (MB)    (FT/S)
W MID LAKE BUOY  1850   66 60  250/ 16/ 17 1010.0F   1
DEVILS ISLAND    1900   67     240/ 18/ 20 1011.1R
SAXON HARBOR     1840   81     260/  7/ 12 1010.8S
$$

LMZ867-665-643>646-202000-
LAKE MICHIGAN

STATION/POSITION TIME  TEMP    WIND        PRES    WAVE
                       AIR SEA DIR/SP/G            HT/PER
                 (UTC) (F)     (DEG/KT/KT) (MB)    (FT/S)
S GREEN BAY BUOY 1900   74 72  210/ 10/ 12 1014.7
N MID LAKE BUOY  1850   69 67  180/ 16/ 17 1015.4F   2/ 4
NORTHPORT PIER   1840   74     160/  9/ 13 1014.6S
KEWAUNEE LAKESHO 1854   69     180/ 10/ 11 1014.8F
SHEBOYGAN LAKESH 1900   71     170/ 11/ 12 1015.7F
PORT WASHINGTON  1830   76     180/  5/  8 1016.9F
ATWATER BUOY     1809   72 71  150/ 12/ 16 1016.6F
MILWAUKEE LAKESH 1900   72     140/ 12/ 14   N/A
S MID LAKE BUOY  1850   73 72  150/  8/  8 1017.0F   1/ 4
KENOSHA   LAKESH 1900   74     160/  9/ 10 1016.3
$$

TC  - TEMPERATURE IN CELSIUS
VSB - VISIBILITY IN STATUTE MILES
WCI - WIND CHILL INDEX
HX  - HEAT INDEX





USA.gov is the U.S. government's official web portal to all federal, state and local government web resources and services.